Вернуться в каталог

DELTA 1 DEB

АктивенLEO
NORAD 10837·DEBRIS·🇺🇸 United States

Запущен Jul 29, 1976 с Vandenberg Space Force Base

Loading…

Ближайшие Пролёты (ближайшие 24 часа)

TLE

СвежийSource: Space-Track

Эпоха: Sep 14, 2026, 06:13 UTC

1 10837U 76077CH  26257.25945341 -.00000014  00000-0  30724-3 0  9996
2 10837 102.3226 180.5020 0200903  27.8408 125.6123 12.04541017204344

Отслеживайте DELTA 1 DEB в реальном времени с AllMySat

Download on the App Store